Orbital Elements at Epoch 2459200.5 (2020-Dec-17.0) TDB
Reference: JPL 18 (heliocentric ecliptic J2000)
Element | Value | Uncertainty (1-sigma) | Units |
e | .1917975858890114 | 4.8225e-08 | |
a | 2.345966787731685 | 1.1882e-08 | au |
q | 1.89601602126895 | 1.1158e-07 | au |
i | 3.811699197476202 | 5.8397e-06 | deg |
node | 10.9973509914462 | 6.9806e-05 | deg |
peri | 336.6307759465943 | 7.1108e-05 | deg |
M | 341.7930323775865 | 1.4216e-05 | deg |
tp | 2459266.876803630737 (2021-Feb-21.37680363) | 5.207e-05 | TDB |
period | 1312.445312290703 3.59 | 9.9713e-06 2.73e-08 | d yr |
n | .2742971433770955 | 2.084e-09 | deg/d |
Q | 2.795917554194421 | 1.4161e-08 | au |
|
| | Orbit Determination Parameters
Additional Information
|